Overview Statistics Trail Chart Weather Telemetry Raw packets
 

This is the latest recevied weather packets stored in our database for station/object SM4JDW-10. If no packets are shown the sender has not sent any weather packets the latest 10 day(s).

<< 8 9 10 11 12 13 14 >>
Time Temp. Humidity Pressure Rain* Wind** Luminosity Snow
1788185290 19.44° C 62% 1002.3 hPa - - - -
1788183490 18.89° C 67% 1002.6 hPa - - - -
1788181690 17.78° C 71% 1002.4 hPa - - - -
1788179889 17.78° C 72% 1002.2 hPa - - - -
1788178089 17.78° C 72% 1002.3 hPa - - - -
1788176289 17.22° C 74% 1002.2 hPa - - - -
1788174489 17.22° C 75% 1002.3 hPa - - - -
1788172689 16.67° C 77% 1002.1 hPa - - - -
1788170889 16.67° C 77% 1002.1 hPa - - - -
1788166152 15.56° C 82% 1001.8 hPa - - - -
1788164352 15.56° C 83% 1001.7 hPa - - - -
1788162551 15° C 81% 1001.7 hPa - - - -
1788160751 14.44° C 79% 1001.4 hPa - - - -
1788158951 14.44° C 78% 1001.4 hPa - - - -
1788157156 14.44° C 79% 1001.3 hPa - - - -
1788155351 13.89° C 78% 1001.2 hPa - - - -
1788153551 13.89° C 81% 1001 hPa - - - -
1788151751 13.89° C 82% 1000.9 hPa - - - -
1788149951 13.89° C 84% 1000.9 hPa - - - -
1788148151 13.89° C 82% 1000.8 hPa - - - -
1788146351 13.89° C 83% 1000.7 hPa - - - -
1788144551 13.89° C 83% 1000.8 hPa - - - -
1788142750 13.89° C 81% 1000.7 hPa - - - -
1788140950 13.89° C 82% 1000.9 hPa - - - -
1788139151 13.89° C 82% 1000.9 hPa - - - -

* Rain since midnight (hover to see other rain measurements)
** Current wind speed in m/s (hover to see current wind gust speed)